Tracking 29892 objects as of 21-Nov-2024
HD Live streaming from Space Station
objects crossing your sky now

THORAD AGENA D DEB

Track THORAD AGENA D DEB now!
10-day predictions


NORAD ID: 4164
Int'l Code: 1969-082AG
Perigee: 768.6 km
Apogee: 823.1 km
Inclination: 70.1 °
Period: 100.6 minutes
Semi major axis: 7166 km
RCS: 0.032 m2 (small)
Launch date: September 30, 1969
Source: United States (US)
Launch site: AIR FORCE WESTERN TEST RANGE (AFWTR)

Note: This is SATELLITE DEBRIS
Your satellite tracking list
Your tracking list is empty




NASA's NSSDC Master Catalog

Two Line Element Set (TLE):
1  4164U 69082AG  24325.97926449  .00004562  00000-0  17427-2 0  9996
2  4164  70.0808 358.5105 0037998 206.8142 153.1020 14.30903801829376
Source of the keplerian elements: AFSPC